Flag for Guernsey Weather past 2 weeks in St. Peter Port, Guernsey

Now
59 °F

Clear.


Feels Like: 58 °F
Forecast: 58 / 73 °F
Wind: 6 mph from South

Location: Cherbourg / Maupertus

Current Time: Jul 2, 2015 at 2:03:18 AM

Latest Report: Jul 2, 2015 at 1:30 AM


Visibility: 10 mi

Pressure: 30.04 "Hg

Humidity: 88%

Dew point: 55 °F

Location of St. Peter PortLocation

Historic Weather in St. Peter Port — Graph

°F

St. Peter Port temperature yesterday

Maximum temperature yesterday: 90 °F (at 3:00 PM)
Minimum temperature yesterday: 61 °F (at 11:30 PM)
Average temperature yesterday: 73 °F

Past Weeks' High & Low Weather Summary

 TemperatureHumidityPressure
High90 °F (Jul 1, 3:00 PM)100% (Jun 17, 8:30 PM)30.33 "Hg (Jun 17, 8:30 PM)
Low48 °F (Jun 23, 5:00 AM)45% (Jun 30, 3:00 PM)29.83 "Hg (Jul 1, 4:30 AM)
Average61 °F79%30.13 "Hg
* Reported Jun 17 1:00 AM — Jul 2 1:00 AM, St. Peter Port, Weather by CustomWeather, © 2015

Note: Actual official high and low records may vary slightly from our data, if they occured in-between our weather recording intervals... More about our weather records

Advertising

St. Peter Port weather history for previous 24 hours

 ConditionsComfort  
Time TempWeatherWind HumidityBarometerVisibility
1:00 AM
Thu, Jul 2
59 °FPassing clouds.7 mph88%30.01 "HgN/A
12:30 AM57 °FClear.6 mph94%30.01 "Hg10 mi
12:00 AM59 °FPassing clouds.6 mph94%30.01 "HgN/A
11:30 PM
Wed, Jul 1
61 °FPassing clouds.5 mph88%30.01 "HgN/A
11:00 PM63 °FOvercast.8 mph83%30.01 "HgN/A
10:00 PM63 °FPartly sunny.10 mph83%30.01 "HgN/A
9:30 PM63 °FOvercast.8 mph83%29.98 "HgN/A
9:00 PM63 °FOvercast.9 mph83%29.98 "HgN/A
8:30 PM63 °FOvercast.15 mph88%29.95 "HgN/A
8:00 PM64 °FPartly sunny.15 mph83%29.95 "HgN/A
7:30 PM66 °FPassing clouds.12 mph83%29.95 "HgN/A
7:00 PM70 °FSunny.12 mph73%29.92 "Hg10 mi
6:30 PM68 °FSunny.8 mph78%29.92 "Hg10 mi
6:00 PM68 °FSunny.13 mph78%29.92 "Hg10 mi
5:30 PM64 °FBroken clouds.14 mph88%29.89 "HgN/A
5:00 PM66 °FSunny.12 mph83%29.89 "Hg10 mi
4:30 PM70 °FPassing clouds.12 mph78%29.89 "HgN/A
4:00 PM82 °FPassing clouds.8 mph55%29.86 "HgN/A
3:30 PM84 °FPassing clouds.6 mph55%29.86 "HgN/A
3:00 PM90 °FPassing clouds.8 mph46%29.86 "HgN/A
2:30 PM86 °FSunny.3 mph52%29.86 "Hg10 mi
2:00 PM88 °FPassing clouds.6 mph52%29.86 "HgN/A
1:30 PM86 °FPassing clouds.7 mph52%29.86 "HgN/A
1:00 PM84 °FPassing clouds.7 mph55%29.86 "HgN/A
12:30 PM82 °FPassing clouds.6 mph58%29.86 "HgN/A
12:00 PM82 °FPassing clouds.3 mph58%29.86 "HgN/A
11:30 AM81 °FPassing clouds.10 mph62%29.86 "HgN/A
11:00 AM77 °FPassing clouds.3 mph69%29.86 "HgN/A
10:30 AM77 °FSunny.5 mph65%29.86 "Hg10 mi
10:00 AM75 °FSunny.2 mph69%29.89 "Hg10 mi
9:30 AM70 °FPassing clouds.8 mph78%29.86 "HgN/A
9:00 AM73 °FPassing clouds.8 mph65%29.86 "HgN/A
8:30 AM77 °FPassing clouds.14 mph57%29.86 "HgN/A
8:00 AM75 °FPassing clouds.8 mph61%29.86 "HgN/A
7:30 AM73 °FPassing clouds.6 mph65%29.83 "HgN/A
7:00 AM72 °FSunny.8 mph65%29.83 "Hg10 mi
6:30 AM72 °FSunny.10 mph65%29.83 "Hg10 mi
6:00 AM72 °FClear.12 mph61%29.83 "Hg10 mi
5:30 AM70 °FClear.10 mph64%29.83 "Hg10 mi
5:00 AM70 °FClear.10 mph64%29.83 "Hg10 mi
4:30 AM68 °FClear.10 mph64%29.83 "Hg10 mi
3:30 AM70 °FClear.10 mph60%29.86 "Hg10 mi
3:00 AM70 °FClear.12 mph60%29.86 "Hg10 mi
2:30 AM72 °FClear.12 mph53%29.86 "Hg10 mi
2:00 AM73 °FClear.13 mph47%29.86 "Hg10 mi
Weather by CustomWeather, © 2015

See weather overviewHow to use our weather pages